www.pogodaiklimat.ru

Погода и климат >> Архив погоды >> Кабо-Верде >> Минделу


ПОГОДА в Минделу

  • Прогноз погоды в Минделу
  • Монитор погоды в Минделу

АРХИВ ПОГОДЫ в Минделу

Время (UTC), дата Ветер
(напр.,м/с)
 
Видим.   Явления Облачность Т
(С)
Тd
(С)
f
(%)
Тe
(С)
Тes
(С)
Комфортность P
(гПа)
Po
(гПа)
Тmin
(С)
Tmax
(С)
R
(мм)
R24
(мм)
S
(см)
12 12.06 СВ 8 10 км 1/1 540 м
[Sc]
+27.5 +17.6 55 +32 +35 очень
душно
1016.3 1009.0
18 12.06 СВ 11 15 км 3/1 600 м
[Sc Ci fib]
+26.6 +17.6 58 +31 +31 душно 1014.7 1007.4 +28.6
00 13.06 СВ 7 12 км 3/3 660 м
[Sc]
+23.1 +17.3 70 +28 +28 душно 1018.1 1010.7
06 13.06 В 5 12 км 6/6 600 м
[Sc Ci fib]
+23.0 +17.5 71 +28 +28 душно 1016.8 1009.4 +22.6
12 13.06 СВ 6 18 км 1/1 700 м
[Cu hum Ci fib]
+28.3 +17.7 53 +33 +39 очень
душно
1018.1 1010.9
18 13.06 СВ 9 18 км 8/4 700 м
[Cu hum Ac trans Ci sp]
+27.0 +17.8 57 +31 +32 душно 1016.4 1009.1 +29.0
00 14.06 СВ 4 15 км 6/5 700 м
[Cu med, cong Ac trans Ci fib]
+23.2 +18.2 73 +29 +29 душно 1019.0 1011.6
06 14.06 СВ 5 15 км 10/10 700 м
[Sc]
+23.8 +18.5 72 +28 +28 душно 1017.2 1009.9 +23.5
12 14.06 СВ 6 25 км 4/4 660 м
[Sc]
+28.2 +17.8 53 +33 +37 очень
душно
1019.1 1011.8
18 14.06 СВ 8 20 км 8/1 700 м
[Sc Ci]
+27.8 +18.1 56 +33 +33 очень
душно
1017.4 1010.1 +29.5
00 15.06 СВ 6 20 км 9/4 660 м
[Cu med, cong Ac trans Ci]
+23.8 +18.0 70 +28 +28 душно 1019.9 1012.5
06 15.06 В 7 20 км 9/5 660 м
[Sc Ci sp]
+23.0 +18.4 75 +29 +29 очень
душно
1017.1 1009.7 +22.6
12 15.06 СВ 8 20 км 3/1 600 м
[Sc Ci fib]
+27.8 +18.0 55 +32 +35 душно 1019.0 1011.7
18 15.06 СВ 9 20 км 6/3 660 м
[Sc Ci fib]
+26.5 +18.6 62 +31 +32 душно 1017.1 1009.8 +29.5
00 16.06 СВ 8 18 км 8/3 540 м
[Sc Ci]
+23.2 +19.0 77 +29 +29 душно 1019.6 1012.2
06 16.06 В 8 18 км 5/3 540 м
[Cu med, cong Ci fib]
+22.7 +19.0 80 +29 +29 очень
душно
1017.0 1009.6 +22.6
12 16.06 СВ 11 15 км 5/3 540 м
[Cu med, cong Ci fib]
+28.7 +18.7 55 +34 +34 очень
душно
1018.0 1010.8
18 16.06 СВ 10 15 км 4/3 540 м
[Cu med, cong Ci fib]
+27.1 +19.2 62 +33 +33 очень
душно
1017.5 1010.2 +29.5
00 17.06 В 10 10 км 6/1 600 м
[Sc Ac trans Cc]
+23.5 +19.5 78 +29 +29 душно 1018.6 1011.2
12 17.06 В 15 10 км 1/1 500 м
[Cu hum Ac trans]
+28.5 +18.5 55 +34 +34 очень
душно
1017.0 1009.8
18 17.06 СВ 14 15 км 4/1 450 м
[Cu hum Ac trans]
+26.8 +20.0 66 +33 +33 очень
душно
1016.1 1008.8 +29.1
00 18.06 СВ 16 12 км 3/1 500 м
[Cu hum Ci fib]
+24.0 +18.8 73 +29 +29 душно 1016.5 1009.2
06 18.06 СВ 14 10 км 1/1 450 м
[Cu med, cong]
+23.0 +18.9 78 +29 +29 очень
душно
1013.9 1006.6 +22.8
12 18.06 В 14 12 км 3/3 450 м
[Cu hum]
+27.8 +20.0 63 +34 +34 очень
душно
1017.4 1010.1
18 18.06 СВ 13 12 км 9/5 480 м
[Cu hum Ac trans]
+27.0 +19.3 63 +33 +33 очень
душно
1016.2 1008.9 +29.2
00 19.06 В 11 10 км 8/4 480 м
[Cu med, cong Ac trans]
+24.0 +20.0 78 +29 +29 душно 1018.1 1010.7
06 19.06 В 9 12 км 9/4 500 м
[Sc Ac trans]
+23.6 +19.7 79 +29 +29 душно 1017.0 1009.6 +23.5

 

Местоположение метеостанции Минделу (Кабо-Верде): широта 16.88 долгота -25.00 высота над уровнем моря 63 м.

В архиве по умолчанию представлена погода в Минделу за последнюю неделю. Архивные данные за месяц целиком и за предыдущие месяцы, начиная с января 2011 года, Вы можете получить, выбрав интересующий диапазон дат из раскрывающегося списка и нажав кнопку "Ввод!".


*Определитесь, кто Вы:
робот инопланетянин человек

Внимание! Время в таблицах - всемирное. Для получения местного времени необходимо прибавить поправку, которая равна -1 ч.

Смотрите также архив погоды в соседних городах и на ближайших метеорологических станциях:

Погода в Сале (Кабо-Верде) (219 км)
Погода в Прае (Кабо-Верде) (272 км)
Погода в Дакаре (Сенегал) (837 км)
Погода в Сент-Луисе (Сенегал) (917 км)
Погода в Нуадибу (Мавритания) (952 км)
Погода в Нуакшоте (Мавритания) (969 км)
Погода в Диурбеле (Сенегал) (971 км)
Погода в Банжуле (Гамбия) (979 км)
Погода в Росо (Мавритания) (980 км)
Погода в Банжуле Half-Die (Гамбия) (994 км)

Пояснения к столбцам:

Ветер - указаны скорость ветра в м/с - средняя за 10 мин, порывы в срок и между сроками (в фигурных скобках) и направление, откуда дует ветер: С - северный, СВ - северо-восточный, В - восточный, ЮВ - юго-восточный, Ю - южный, ЮЗ - юго-западный, З - западный, СЗ - северо-западный.
Видимость - горизонтальная дальность видимости в метрах или километрах. При видимости от 1 до 10 км при отсутствии осадков обычно наблюдается дымка, при ухудшении видимости до 1 км и менее - туман. В сухую погоду видимость может ухудшаться дымом, пылью или мглою.
Явления - указаны атмосферные явления, наблюдавшиеся в срок или в последний час перед сроком; фигурными скобками обозначены явления, наблюдавшиеся между сроками (за 1-3 часа до срока); квадратными скобками обозначены град или гололедные отложения с указанием их диаметра в мм.
Облачность - указаны через наклонную черту общая и нижняя облачность в баллах и высота нижней границы облаков в метрах; квадратными скобками обозначены формы облаков: Ci - перистые, Cs - перисто-слоистые, Cc - перисто-кучевые, Ac - высококучевые, As - высокослоистые, Sc - слоисто-кучевые, Ns - слоисто-дождевые, Cu - кучевые, Cb - кучево-дождевые. Подробнее классификацию облаков см. в Атласе облаков (PDF).
T - Температура воздуха - температура, измеренная на высоте 2 м над землей.
Td - Температура точки росы - температура, при понижении до которой содержащийся в воздухе водяной пар достигнет насыщения.
f - Относительная влажность воздуха - влажноcть воздуха, измеренная на высоте 2 м над землей.
Te - Эффективная температура - температура, которую ощущает одетый по сезону человек в тени. Характеристика душности погоды. При расчете учитывается влияние влажности воздуха и скорости ветра на теплоощущения человека.
Tes - Эффективная температура на солнце - температура, которую ощущает человек, с поправкой на солнечный нагрев. Характеристика знойности погоды. Зависит от высоты солнца над горизонтом, облачности и скорости ветра. Ночью, в пасмурную погоду, а также при ветре 12 м/с и более поправка равна нулю.
P - Атмосферное давление - приведенное к уровню моря атмосферное давление.
Po - Атмосферное давление - измеренное на уровне метеостанции атмосферное давление.
Tmin - Минимальная температура - минимум температуры воздуха на высоте 2 м над землей.
Tmax - Максимальная температура - максимум температуры воздуха на высоте 2 м над землей.
R - Количество осадков - Количество выпавших осадков за период времени, мм. При наведении курсора мыши на число - период времени, за который выпало указанное количество осадков.
R24 - Количество осадков - Количество выпавших осадков за 24 часа, мм.
S - Снежный покров - Высота снежного покрова, см. При наведении курсора мыши на число - состояние снежного покрова и степень покрытия местности в баллах.